PUA1496 SUMU-SABE

Flight info

Callsign PUA1496
Flight time 0h 40m
Altitude 18000
Route DAGUS A306 UGIMI UGIMI8Q
Aircraft MD83/M-SDFGIRWY/S

Departure

Time 2026-04-21 03:34
Airport Carrasco General Cesáreo L. Berisso International Airport (SUMU)

Arrival

Time 2026-04-21 04:15
Airport Aeroparque Jorge Newbery (SABE)
Time Latitude Longitude Altitude Speed Heading
2026-04-21 03:16 -34.83612 -56.01809 86 ft 0 kts 144°
2026-04-21 03:26 -34.83598 -56.01821 87 ft 8 kts 143°
2026-04-21 03:26 -34.83560 -56.01854 85 ft 2 kts 158°
2026-04-21 03:26 -34.83549 -56.01854 87 ft 2 kts 218°
2026-04-21 03:27 -34.83543 -56.01847 85 ft 0 kts 234°
2026-04-21 03:29 -34.83559 -56.01872 85 ft 10 kts 233°
2026-04-21 03:29 -34.83607 -56.01949 87 ft 12 kts 232°
2026-04-21 03:29 -34.83681 -56.02071 83 ft 22 kts 233°
2026-04-21 03:30 -34.83778 -56.02218 85 ft 22 kts 214°
2026-04-21 03:30 -34.83922 -56.02253 86 ft 20 kts 204°
2026-04-21 03:30 -34.83946 -56.02359 83 ft 15 kts 269°
2026-04-21 03:30 -34.83946 -56.02535 83 ft 23 kts 270°
2026-04-21 03:31 -34.83962 -56.02691 86 ft 22 kts 248°
2026-04-21 03:31 -34.84010 -56.02857 87 ft 21 kts 267°
2026-04-21 03:31 -34.84013 -56.03039 83 ft 24 kts 262°
2026-04-21 03:31 -34.84075 -56.03220 84 ft 23 kts 241°
2026-04-21 03:32 -34.84150 -56.03390 84 ft 20 kts 242°
2026-04-21 03:32 -34.84197 -56.03501 86 ft 15 kts 242°
2026-04-21 03:32 -34.84238 -56.03616 86 ft 15 kts 266°
2026-04-21 03:32 -34.84182 -56.03645 86 ft 10 kts 54°
2026-04-21 03:33 -34.84176 -56.03637 85 ft 0 kts 51°
2026-04-21 03:33 -34.84153 -56.03602 88 ft 28 kts 53°
2026-04-21 03:33 -34.83875 -56.03144 86 ft 103 kts 53°
2026-04-21 03:34 -34.83329 -56.02241 103 ft 157 kts 54°
2026-04-21 03:34 -34.82625 -56.01071 389 ft 181 kts 54°
2026-04-21 03:34 -34.81989 -55.99715 803 ft 195 kts 76°
2026-04-21 03:34 -34.82034 -55.98033 1249 ft 207 kts 108°
2026-04-21 03:35 -34.82868 -55.96551 1771 ft 223 kts 137°
2026-04-21 03:35 -34.84358 -55.95782 2290 ft 247 kts 171°
2026-04-21 03:35 -34.86139 -55.96020 2796 ft 270 kts 194°
2026-04-21 03:35 -34.87829 -55.97059 3392 ft 272 kts 217°
2026-04-21 03:36 -34.89314 -55.98523 4155 ft 278 kts 221°
2026-04-21 03:36 -34.90812 -56.00069 4880 ft 285 kts 221°
2026-04-21 03:36 -34.92327 -56.01620 5690 ft 284 kts 221°
2026-04-21 03:36 -34.93857 -56.03165 6548 ft 286 kts 221°
2026-04-21 03:37 -34.95413 -56.04703 7318 ft 291 kts 221°
2026-04-21 03:37 -34.97007 -56.06243 8051 ft 293 kts 220°
2026-04-21 03:37 -34.98620 -56.07762 8793 ft 293 kts 220°
2026-04-21 03:37 -35.00241 -56.09261 9556 ft 291 kts 220°
2026-04-21 03:38 -35.01858 -56.10743 10297 ft 289 kts 221°
2026-04-21 03:38 -35.03203 -56.12498 10803 ft 289 kts 245°
2026-04-21 03:38 -35.03747 -56.14825 11369 ft 289 kts 271°
2026-04-21 03:38 -35.03628 -56.17299 11910 ft 297 kts 278°
2026-04-21 03:39 -35.03382 -56.19832 12445 ft 305 kts 278°
2026-04-21 03:39 -35.03121 -56.22443 12952 ft 315 kts 278°
2026-04-21 03:39 -35.02862 -56.25135 13461 ft 323 kts 278°
2026-04-21 03:39 -35.02616 -56.27887 13967 ft 331 kts 277°
2026-04-21 03:40 -35.02383 -56.30721 14430 ft 339 kts 277°
2026-04-21 03:40 -35.02165 -56.33618 14897 ft 346 kts 276°
2026-04-21 03:40 -35.01957 -56.36585 15370 ft 354 kts 276°
2026-04-21 03:40 -35.01754 -56.39604 15854 ft 361 kts 276°
2026-04-21 03:41 -35.01549 -56.42686 16348 ft 367 kts 276°
2026-04-21 03:41 -35.01340 -56.45820 16848 ft 374 kts 276°
2026-04-21 03:41 -35.01125 -56.49010 17356 ft 380 kts 276°
2026-04-21 03:41 -35.00903 -56.52257 17747 ft 388 kts 276°
2026-04-21 03:42 -35.00673 -56.55572 17921 ft 393 kts 276°
2026-04-21 03:42 -35.00443 -56.58871 18000 ft 383 kts 276°
2026-04-21 03:42 -35.00222 -56.62046 18036 ft 371 kts 276°
2026-04-21 03:42 -35.00002 -56.65129 18057 ft 370 kts 277°
2026-04-21 03:43 -34.99765 -56.68258 18064 ft 372 kts 277°
2026-04-21 03:43 -34.99519 -56.71409 18072 ft 372 kts 277°
2026-04-21 03:43 -34.99274 -56.74554 18072 ft 373 kts 277°
2026-04-21 03:43 -34.99033 -56.77700 18071 ft 374 kts 277°
2026-04-21 03:44 -34.98796 -56.80865 18060 ft 373 kts 276°
2026-04-21 03:44 -34.98566 -56.84026 18065 ft 372 kts 276°
2026-04-21 03:44 -34.98341 -56.87164 18068 ft 372 kts 276°
2026-04-21 03:44 -34.98162 -56.90323 18066 ft 372 kts 274°
2026-04-21 03:45 -34.98115 -56.93475 18071 ft 372 kts 271°
2026-04-21 03:45 -34.98132 -56.96594 18061 ft 373 kts 271°
2026-04-21 03:45 -34.98165 -56.99757 18067 ft 373 kts 271°
2026-04-21 03:45 -34.98191 -57.02915 18066 ft 372 kts 271°
2026-04-21 03:46 -34.98205 -57.06068 18060 ft 372 kts 271°
2026-04-21 03:46 -34.98204 -57.09154 18071 ft 372 kts 272°
2026-04-21 03:46 -34.98192 -57.12316 18068 ft 372 kts 272°
2026-04-21 03:46 -34.98173 -57.15469 18069 ft 372 kts 272°
2026-04-21 03:47 -34.98159 -57.17555 18065 ft 372 kts 272°
2026-04-21 03:47 -34.98136 -57.20716 18060 ft 372 kts 272°
2026-04-21 03:47 -34.98108 -57.24938 18061 ft 372 kts 272°
2026-04-21 03:47 -34.98096 -57.27028 18061 ft 372 kts 272°
2026-04-21 03:48 -34.98078 -57.30188 18067 ft 372 kts 272°
2026-04-21 03:48 -34.98063 -57.33343 18059 ft 372 kts 272°
2026-04-21 03:48 -34.98049 -57.36488 18066 ft 372 kts 271°
2026-04-21 03:48 -34.98035 -57.39642 18055 ft 373 kts 271°
2026-04-21 03:49 -34.98018 -57.42799 18063 ft 373 kts 272°
2026-04-21 03:49 -34.97992 -57.45986 18058 ft 373 kts 272°
2026-04-21 03:49 -34.97962 -57.49120 18069 ft 373 kts 272°
2026-04-21 03:49 -34.97929 -57.52277 18075 ft 372 kts 272°
2026-04-21 03:50 -34.97896 -57.55438 18078 ft 372 kts 272°
2026-04-21 03:50 -34.97863 -57.58582 18079 ft 372 kts 272°
2026-04-21 03:50 -34.97832 -57.61748 18087 ft 373 kts 272°
2026-04-21 03:50 -34.97801 -57.64917 18090 ft 374 kts 272°
2026-04-21 03:51 -34.97773 -57.68087 18093 ft 374 kts 272°
2026-04-21 03:51 -34.97746 -57.71260 18096 ft 374 kts 271°
2026-04-21 03:51 -34.97719 -57.74433 18100 ft 375 kts 271°
2026-04-21 03:51 -34.97692 -57.77617 18104 ft 375 kts 271°
2026-04-21 03:52 -34.97664 -57.80805 18104 ft 375 kts 271°
2026-04-21 03:52 -34.97638 -57.83970 18102 ft 375 kts 272°
2026-04-21 03:52 -34.97610 -57.87150 18103 ft 374 kts 271°
2026-04-21 03:52 -34.97508 -57.90266 18101 ft 372 kts 279°
2026-04-21 03:53 -34.96938 -57.93348 18103 ft 372 kts 286°
2026-04-21 03:53 -34.96175 -57.96367 18103 ft 372 kts 288°
2026-04-21 03:53 -34.95376 -57.99367 18101 ft 373 kts 288°
2026-04-21 03:53 -34.94588 -58.02386 18099 ft 373 kts 287°
2026-04-21 03:54 -34.93829 -58.05416 18092 ft 373 kts 287°
2026-04-21 03:54 -34.93096 -58.08448 18091 ft 374 kts 286°
2026-04-21 03:54 -34.92377 -58.11496 18084 ft 374 kts 286°
2026-04-21 03:54 -34.91665 -58.14547 18085 ft 374 kts 286°
2026-04-21 03:55 -34.90955 -58.17600 18083 ft 375 kts 286°
2026-04-21 03:55 -34.90244 -58.20647 18077 ft 374 kts 286°
2026-04-21 03:55 -34.89530 -58.23690 18069 ft 374 kts 286°
2026-04-21 03:55 -34.88812 -58.26736 18068 ft 373 kts 286°
2026-04-21 03:56 -34.88123 -58.29644 18069 ft 370 kts 286°
2026-04-21 03:56 -34.87392 -58.32723 17822 ft 360 kts 286°
2026-04-21 03:56 -34.86699 -58.35641 17325 ft 356 kts 286°
2026-04-21 03:56 -34.86015 -58.38511 16234 ft 364 kts 286°
2026-04-21 03:57 -34.85294 -58.41503 14914 ft 371 kts 286°
2026-04-21 03:57 -34.84575 -58.44460 14476 ft 359 kts 286°
2026-04-21 03:57 -34.83881 -58.47317 14269 ft 343 kts 286°
2026-04-21 03:57 -34.83229 -58.50033 14173 ft 325 kts 285°
2026-04-21 03:58 -34.82577 -58.52588 14116 ft 307 kts 292°
2026-04-21 03:58 -34.81422 -58.54679 13972 ft 295 kts 314°
2026-04-21 03:58 -34.79862 -58.56292 13580 ft 293 kts 320°
2026-04-21 03:58 -34.78260 -58.57770 13220 ft 285 kts 321°
2026-04-21 03:59 -34.76699 -58.59198 12888 ft 277 kts 321°
2026-04-21 03:59 -34.75173 -58.60614 12609 ft 276 kts 320°
2026-04-21 03:59 -34.73654 -58.62046 12348 ft 278 kts 320°
2026-04-21 04:00 -34.70598 -58.64983 11822 ft 280 kts 319°
2026-04-21 04:00 -34.69077 -58.66469 11544 ft 281 kts 319°
2026-04-21 04:00 -34.67559 -58.67958 11267 ft 280 kts 319°
2026-04-21 04:00 -34.66050 -58.69443 10973 ft 278 kts 319°
2026-04-21 04:01 -34.64554 -58.70916 10716 ft 275 kts 319°
2026-04-21 04:01 -34.63073 -58.72373 10436 ft 270 kts 320°
2026-04-21 04:01 -34.61657 -58.73762 10265 ft 252 kts 319°
2026-04-21 04:01 -34.60357 -58.75033 9869 ft 237 kts 319°
2026-04-21 04:02 -34.59086 -58.76277 9436 ft 225 kts 319°
2026-04-21 04:02 -34.57914 -58.77424 9230 ft 207 kts 319°
2026-04-21 04:02 -34.56847 -58.78466 9145 ft 196 kts 321°
2026-04-21 04:02 -34.55597 -58.79107 9078 ft 203 kts 355°
2026-04-21 04:03 -34.54141 -58.79020 8714 ft 212 kts
2026-04-21 04:03 -34.52687 -58.78794 8323 ft 208 kts
2026-04-21 04:03 -34.51273 -58.78564 7961 ft 203 kts
2026-04-21 04:03 -34.49888 -58.78340 7663 ft 199 kts
2026-04-21 04:04 -34.48526 -58.78129 7400 ft 197 kts
2026-04-21 04:04 -34.47164 -58.77928 7146 ft 197 kts
2026-04-21 04:04 -34.45824 -58.77740 7007 ft 191 kts
2026-04-21 04:04 -34.44481 -58.77562 6732 ft 197 kts
2026-04-21 04:05 -34.43122 -58.77391 6391 ft 195 kts
2026-04-21 04:05 -34.41790 -58.77232 6117 ft 186 kts
2026-04-21 04:05 -34.40587 -58.77090 5904 ft 167 kts
2026-04-21 04:05 -34.39452 -58.76958 5531 ft 161 kts
2026-04-21 04:06 -34.38369 -58.76834 5270 ft 150 kts
2026-04-21 04:06 -34.37352 -58.76662 5118 ft 147 kts 20°
2026-04-21 04:06 -34.36723 -58.75741 4935 ft 155 kts 85°
2026-04-21 04:06 -34.37150 -58.74579 5037 ft 153 kts 130°
2026-04-21 04:07 -34.37837 -58.73623 5358 ft 156 kts 128°
2026-04-21 04:07 -34.38567 -58.72520 5274 ft 173 kts 127°
2026-04-21 04:07 -34.39304 -58.71409 5130 ft 166 kts 127°
2026-04-21 04:07 -34.40001 -58.70316 5046 ft 162 kts 124°
2026-04-21 04:08 -34.40650 -58.69217 5029 ft 159 kts 122°
2026-04-21 04:08 -34.41271 -58.68097 4975 ft 162 kts 120°
2026-04-21 04:08 -34.41855 -58.66952 4758 ft 160 kts 118°
2026-04-21 04:08 -34.42430 -58.65810 4512 ft 157 kts 119°
2026-04-21 04:09 -34.43021 -58.64708 4296 ft 155 kts 120°
2026-04-21 04:09 -34.43627 -58.63614 4054 ft 154 kts 121°
2026-04-21 04:09 -34.44216 -58.62556 3847 ft 153 kts 121°
2026-04-21 04:09 -34.44813 -58.61493 3669 ft 152 kts 120°
2026-04-21 04:10 -34.45409 -58.60433 3473 ft 151 kts 119°
2026-04-21 04:10 -34.45994 -58.59383 3280 ft 149 kts 119°
2026-04-21 04:10 -34.46572 -58.58345 3086 ft 148 kts 119°
2026-04-21 04:10 -34.47150 -58.57308 2900 ft 148 kts 119°
2026-04-21 04:11 -34.47727 -58.56276 2710 ft 148 kts 118°
2026-04-21 04:11 -34.48304 -58.55247 2531 ft 147 kts 118°
2026-04-21 04:11 -34.48874 -58.54218 2345 ft 147 kts 117°
2026-04-21 04:11 -34.49445 -58.53192 2138 ft 146 kts 117°
2026-04-21 04:12 -34.49961 -58.52266 1972 ft 144 kts 118°
2026-04-21 04:12 -34.50513 -58.51267 1780 ft 142 kts 118°
2026-04-21 04:12 -34.51068 -58.50275 1575 ft 141 kts 118°
2026-04-21 04:12 -34.51606 -58.49317 1410 ft 139 kts 118°
2026-04-21 04:13 -34.52147 -58.48348 1211 ft 139 kts 118°
2026-04-21 04:13 -34.52688 -58.47379 1038 ft 137 kts 118°
2026-04-21 04:13 -34.53212 -58.46422 827 ft 133 kts 120°
2026-04-21 04:13 -34.53717 -58.45493 637 ft 131 kts 121°
2026-04-21 04:14 -34.54225 -58.44592 458 ft 127 kts 122°
2026-04-21 04:14 -34.54722 -58.43701 264 ft 128 kts 124°
2026-04-21 04:14 -34.55230 -58.42825 100 ft 127 kts 124°
2026-04-21 04:14 -34.55707 -58.41989 27 ft 110 kts 123°
2026-04-21 04:15 -34.56028 -58.41393 28 ft 55 kts 124°
2026-04-21 04:15 -34.56180 -58.41119 27 ft 15 kts 116°
2026-04-21 04:15 -34.56167 -58.41014 28 ft 0 kts 59°
2026-04-21 04:15 -34.56166 -58.41011 28 ft 1 kts 59°
2026-04-21 04:16 -34.56161 -58.41001 26 ft 2 kts 59°
2026-04-21 04:16 -34.56153 -58.40986 26 ft 2 kts 47°
2026-04-21 04:16 -34.56123 -58.40991 26 ft 8 kts 327°
2026-04-21 04:16 -34.56090 -58.41035 28 ft 7 kts 310°
2026-04-21 04:17 -34.56039 -58.41116 26 ft 27 kts 306°
2026-04-21 04:17 -34.55931 -58.41287 26 ft 15 kts 320°
2026-04-21 04:17 -34.55866 -58.41286 29 ft 9 kts 10°
2026-04-21 04:17 -34.55813 -58.41305 28 ft 7 kts 302°
2026-04-21 04:18 -34.55783 -58.41375 28 ft 12 kts 297°
2026-04-21 04:18 -34.55737 -58.41453 27 ft 6 kts 343°
2026-04-21 04:18 -34.55702 -58.41446 26 ft 0 kts 18°